Regional Weather Roundup
Issued by NWS

Home | Current Version | Previous Version | Graphics & Text | Print | Product List | Glossary On
Versions: 1 2 3 4 5 6 7 8 9 10 11 12 13 14 15 16 17 18 19 20 21 22 23 24 25 26 27 28 29 30 31 32 33 34 35 36 37 38 39 40 41 42 43 44 45 46 47 48 49 50
000
ASUS45 KCYS 281410
RWRWY

WYOMING REGIONAL WEATHER ROUNDUP
NATIONAL WEATHER SERVICE CHEYENNE WY
800 AM MDT TUE APR 28 2015

NOTE:  "FAIR" INDICATES FEW OR NO CLOUDS BELOW 12,000 FEET
WITH NO SIGNIFICANT WEATHER AND/OR OBSTRUCTIONS TO VISIBILITY.

WYZ001-281500-
YELLOWSTONE NATIONAL PARK

CITY           SKY/WX    TMP DP  RH WIND       PRES   REMARKS
LK YELLOWSTONE   N/A     29  24  82 CALM      30.37S
W YELLOWSTONE  NOT AVBL

$$
WYZ002>013-054>058-071-098>099-281500-
NORTHERN WYOMING

CITY           SKY/WX    TMP DP  RH WIND       PRES   REMARKS
JACKSON        SUNNY     34  30  86 CALM      30.36R
CODY           FAIR      45  36  70 CALM      30.28S
GREYBULL       FAIR      38  33  82 CALM      30.30S
WORLAND        FAIR      40  35  83 CALM      30.29S
SHERIDAN       FAIR      39  35  86 CALM      30.28F
BUFFALO        FAIR      47  32  56 SW6       30.29F
GILLETTE       FAIR      46  37  71 SW13      30.28F
HULETT         FAIR      37  36  93 CALM      30.32F
NEWCASTLE      CLOUDY    39  39 100 SE3       30.34S

$$
WYZ014>020-022>026-101>103-281500-
CENTRAL WYOMING

CITY           SKY/WX    TMP DP  RH WIND       PRES   REMARKS
BIG PINEY      FAIR      36  32  85 NW3       30.36S
PINEDALE       FAIR      37  32  81 CALM      30.37R
DUBOIS         FAIR      36  30  80 NW10      30.32S WCI  28
LANDER         FAIR      36  33  89 SE3       30.31S
RIVERTON       FAIR      41  35  79 CALM      30.32S
CASPER         FAIR      41  36  82 SW9       30.31F
DOUGLAS        FAIR      44  40  85 S5        30.33F

$$
WYZ021-027>030-104>119-281500-
SOUTHERN WYOMING

CITY           SKY/WX    TMP DP  RH WIND       PRES   REMARKS
EVANSTON       FAIR      37  31  78 E9        30.33R WCI  30
KEMMERER       FAIR      37  34  87 CALM      30.36
FORT BRIDGER   SUNNY     37  36  93 CALM      30.38R
ROCK SPRINGS   FAIR      35  32  88 S6        30.35S WCI  30
DIXON          FAIR      35  33  92 CALM      30.36S
RAWLINS        FAIR      40  33  76 CALM      30.34S
SARATOGA       CLOUDY    36  34  93 MISG      30.36R
LARAMIE        FAIR      37  31  78 SE13      30.32S WCI  29
CHEYENNE       CLOUDY    40  36  86 SW3       30.34S
TORRINGTON     PTSUNNY   42  41  96 SE5       30.34S
PINE BLUFFS    CLOUDY    41  39  93 CALM      30.36R

$$


USA.gov is the U.S. government's official web portal to all federal, state and local government web resources and services.